DECAYED

STARLINK-5978, 56769 (Decayed)

Orbit data source: Space-Track

STARLINK-5978, 56769 was a payload satellite owned by SpaceX/Seattle (US) in LEO that was launched on Wed, 31 May 2023 UTC via an FALCON 9 launch vehicle from the Air Force Western Test Range (AFWTR). Payload-class satellites include a variety of spacecraft equipped with specific instruments for various scientific and technological missions. These include communications satellites like Starlink; space stations such as the ISS; scientific satellites like the Hubble; Earth observation satellites from companies like Planet Labs, Umbra, and HawkEye 360; GPS; miniature CubeSats for education and research; and military/defense satellites.

Not visible in the next 10 days
Identifier
56769, 2023-078C
Orbit
Decayed
Country
Flag of USUS
Related business
Manufacturer
SpaceX/Seattle
Mission
Decayed Commercial Communications
Bus & Motor
STARLINK, Unknown motor
Mass
305 kg wet, ~290 kg dry
Launch date (UTC)
2023-05-31 (3 years ago)
Launch vehicle
FALCON 9
Launch site
Air Force Western Test Range (AFWTR)
Object type
Payload
Rocket body
Debris
Shape & HBR
Box + 1 Pan, 10.1 m
Radar Cross Section
11.087 m², Large (>1 m²)

Expand to show TLE details & history
Last TLE update: 9 months ago

TLE from 9 months ago
0 STARLINK-5978
1 56769U 23078C   25251.29017937  .10859229  44738-5  16300-3 0  9996
2 56769  69.9738  73.9205 0011913 269.4554  90.5316 16.47838598125611
Epoch: 2025-09-08T06:57Z
TLE epoch observation values (Epoch: 2025-09-08T06:57:51.497Z)
Latitude
-0.00001°
Longitude
-18.1415°
Altitude
147.695 km
Speed
7.818 km/s
True Right ascension
04h 55m 40s
True Declination
0° 00' 00"
Sunlit
Object was in daylight at epoch
Visualization orbit readout
Latitude
Unknown
Longitude
Unknown
Altitude
Unknown
Speed
Unknown
Apparent Right ascension
Unknown
Apparent Declination
Unknown
Sunlit
N/A
Visualization observer readout
Local Sidereal Time
21:32:54
Azimuth
Unknown
Elevation
Unknown
Doppler factor
Unknown
Orbital elements
Apogee altitude
150.618 km
Perigee altitude
135.081 km
Semi-major axis
6,520.987 km
Eccentricity
0.00119
Inclination
69.9738°
RAAN
73.9205°
Arg. of periapsis
269.4554°
True anomaly
90.66811°
Mean anomaly
90.5316°
Eccentric anomaly
90.59985°
Mean motion
4.12167 °/min
Orbital period
87.34 mins
BSTAR
0.000163
Loading maneuver chart data...
Computing Atmospheric mass density...
Loading historical data...
Loading historical data...
Loading historical data...
Loading historical data...
Loading historical data...
Loading historical data...
Loading historical data...

Documentation

Showing up to 5 results
|